TimeEST,TemperatureF,Dew PointF,Humidity,Sea Level PressureIn,VisibilityMPH,Wind Direction,Wind SpeedMPH,Gust SpeedMPH,PrecipitationIn,Events,Conditions,WindDirDegrees,DateUTC
12:51 AM,12.0,-0.0,59,30.16,10.0,NNW,3.5,-,N/A,,Clear,340,2013-02-10 05:51:00
1:51 AM,12.9,-0.0,56,30.17,10.0,WNW,6.9,-,N/A,,Clear,300,2013-02-10 06:51:00
2:51 AM,12.0,-0.9,56,30.19,10.0,WNW,6.9,-,N/A,,Clear,300,2013-02-10 07:51:00
3:51 AM,12.0,-2.9,51,30.20,10.0,NW,9.2,-,N/A,,Clear,310,2013-02-10 08:51:00
4:51 AM,10.9,-4.0,51,30.23,10.0,NW,3.5,-,N/A,,Clear,310,2013-02-10 09:51:00
5:51 AM,10.0,-4.0,53,30.25,10.0,Calm,Calm,-,N/A,,Clear,0,2013-02-10 10:51:00
6:51 AM,8.1,-5.1,55,30.28,10.0,Calm,Calm,-,N/A,,Clear,0,2013-02-10 11:51:00
7:51 AM,12.0,-5.1,46,30.31,10.0,WNW,4.6,-,N/A,,Clear,300,2013-02-10 12:51:00
8:51 AM,17.1,-5.1,37,30.33,10.0,WNW,4.6,-,N/A,,Clear,300,2013-02-10 13:51:00
9:51 AM,21.0,-2.9,35,30.34,10.0,WNW,5.8,-,N/A,,Clear,300,2013-02-10 14:51:00
10:51 AM,27.0,-0.9,30,30.35,10.0,Variable,4.6,-,N/A,,Clear,0,2013-02-10 15:51:00
11:51 AM,30.9,-0.0,27,30.34,10.0,WNW,8.1,-,N/A,,Clear,300,2013-02-10 16:51:00
12:51 PM,32.0,3.0,29,30.33,10.0,NW,9.2,-,N/A,,Clear,310,2013-02-10 17:51:00
1:51 PM,35.1,-0.0,23,30.31,10.0,WNW,3.5,-,N/A,,Clear,290,2013-02-10 18:51:00
2:51 PM,35.1,1.0,24,30.30,10.0,WNW,4.6,-,N/A,,Clear,290,2013-02-10 19:51:00
3:51 PM,36.0,1.0,23,30.32,10.0,WNW,3.5,-,N/A,,Clear,290,2013-02-10 20:51:00
4:51 PM,34.0,1.9,26,30.33,10.0,Calm,Calm,-,N/A,,Clear,0,2013-02-10 21:51:00
5:51 PM,32.0,1.0,27,30.33,10.0,Calm,Calm,-,N/A,,Clear,0,2013-02-10 22:51:00
6:51 PM,30.0,-0.9,27,30.33,10.0,Calm,Calm,-,N/A,,Clear,0,2013-02-10 23:51:00
7:51 PM,28.0,1.0,31,30.34,10.0,Calm,Calm,-,N/A,,Clear,0,2013-02-11 00:51:00
8:51 PM,24.1,1.0,37,30.33,10.0,Calm,Calm,-,N/A,,Clear,0,2013-02-11 01:51:00
9:51 PM,24.1,1.0,37,30.33,10.0,Calm,Calm,-,N/A,,Clear,0,2013-02-11 02:51:00
10:51 PM,21.0,5.0,50,30.33,10.0,NNW,3.5,-,N/A,,Clear,330,2013-02-11 03:51:00
11:51 PM,18.0,5.0,57,30.33,10.0,Calm,Calm,-,N/A,,Clear,0,2013-02-11 04:51:00